Location: Hopewell Observatory
(38.8698°N, 77.6988°W)
Time: 00:02:55
(UTC-04:00)

Amateur Radio Satellites - All Passes

Search period start: 28 April 2016 23:32
Search period end: 29 April 2016 23:32
Location: Hopewell Observatory, 38.8698°N, 77.6988°W

Satellite Date Start Highest point End Downlink Frequencies (MHz)
Time Altitude Azimuth
HUMSAT D 28 Apr 23:34:17 23:37:46 24° 265° (W) 23:41:14 437.325/437.525
ANTELSAT 28 Apr 23:40:07 23:44:30 89° 116° (ESE) 23:48:46 437.575/2403.000
DX 1 28 Apr 23:43:02 23:47:13 49° 73° (ENE) 23:51:26 434.975-435.025
NANOSAT C BR1 28 Apr 23:43:05 23:45:45 16° 93° (E) 23:48:23 145.865
SRMSAT 28 Apr 23:54:36 23:56:29 11° 178° (S) 23:58:23 437.500
UKube-1 28 Apr 23:58:03 00:02:17 59° 74° (ENE) 00:06:33 .
ESTCUBE 1 29 Apr 00:01:00 00:05:27 69° 259° (W) 00:09:55 437.505/2401.250
AISAT 29 Apr 00:01:09 00:05:35 89° 257° (WSW) 00:10:04 437.250
BUGSAT 1 29 Apr 00:04:25 00:06:10 12° 91° (E) 00:07:54 437.445
RS-15 29 Apr 00:05:09 00:16:14 59° 309° (NW) 00:28:02 29.354- 29.394
50 SAT 29 Apr 00:11:55 00:15:30 51° 260° (W) 00:19:06 437.505
QB50P2 29 Apr 00:30:19 00:34:33 65° 101° (ESE) 00:38:45 145.880/145.840
GONETS M04 29 Apr 00:31:15 00:38:45 32° 84° (E) 00:46:14
POLYITAN 1 29 Apr 00:32:25 00:36:39 66° 101° (E) 00:40:50 437.675
UNISAT 6 29 Apr 00:35:04 00:38:29 23° 292° (WNW) 00:41:52 437.425
POPSAT HIP 1 29 Apr 00:36:17 00:40:32 71° 102° (ESE) 00:44:44 437.405
SPROUT 29 Apr 00:36:26 00:40:45 77° 75° (ENE) 00:45:05 437.525
DUCHIFAT 1 29 Apr 00:36:28 00:40:41 65° 101° (E) 00:44:51 145.980
O/OREOS (USA 219) 29 Apr 00:39:10 00:39:51 10° 52° (NE) 00:40:33 437.305
QB50P1 29 Apr 00:39:57 00:44:14 80° 102° (ESE) 00:48:27 145.935-145.965
AO-85 29 Apr 00:41:23 00:44:06 16° 253° (WSW) 00:46:41 145.980
CUBEBUG 1 29 Apr 00:51:57 00:55:36 26° 264° (W) 00:59:18 437.445
TIGRISAT 29 Apr 00:54:56 00:57:30 15° 295° (WNW) 01:00:02 435.000
PCSat 29 Apr 00:55:39 00:59:03 16° 45° (NE) 01:02:26 145.827
VELOX 1 29 Apr 01:07:49 01:10:49 18° 267° (W) 01:13:50 145.980
AIST 1 29 Apr 01:15:29 01:19:40 56° 94° (E) 01:23:55
NANOSAT C BR1 29 Apr 01:17:41 01:21:38 38° 288° (WNW) 01:25:32 145.865
DX 1 29 Apr 01:21:28 01:23:40 14° 268° (W) 01:25:53 434.975-435.025
TISAT 1 29 Apr 01:27:32 01:31:47 86° 75° (ENE) 01:36:04 437.305
BEESAT 29 Apr 01:31:14 01:34:27 18° 65° (ENE) 01:37:39 436.000
UKube-1 29 Apr 01:37:30 01:38:41 11° 269° (W) 01:39:52 .
BUGSAT 1 29 Apr 01:37:44 01:41:50 50° 287° (WNW) 01:45:52 437.445
Cosmos 2499 29 Apr 01:46:24 01:53:12 48° 90° (E) 01:59:54 435.465 / 435.565
JAS-2 29 Apr 01:49:32 01:57:03 52° 99° (E) 02:04:38 435.910
Gurwin Techsat 1B 29 Apr 01:58:48 02:00:37 12° 90° (E) 02:02:26 435.225
CUSAT 1 29 Apr 02:07:13 02:13:07 29° 73° (ENE) 02:19:44 437.405
QB50P2 29 Apr 02:08:40 02:09:47 11° 297° (WNW) 02:10:54 145.880/145.840
DANDE 29 Apr 02:10:34 02:13:41 14° 69° (ENE) 02:17:05 436.750
POLYITAN 1 29 Apr 02:10:53 02:11:52 11° 297° (WNW) 02:12:51 437.675
DUCHIFAT 1 29 Apr 02:14:49 02:15:49 11° 297° (WNW) 02:16:48 145.980
O/OREOS (USA 219) 29 Apr 02:15:21 02:19:55 85° 250° (WSW) 02:24:24 437.305
ITUPSAT 1 29 Apr 02:21:29 02:26:08 57° 73° (ENE) 02:30:49 437.325
RS-15 29 Apr 02:23:25 02:32:05 23° 339° (NNW) 02:41:06 29.354- 29.394
GONETS M04 29 Apr 02:26:32 02:35:06 53° 283° (WNW) 02:43:43
SWISSCUBE 29 Apr 02:33:16 02:38:01 86° 77° (ENE) 02:42:48 437.505
PCSat 29 Apr 02:37:40 02:43:07 81° 242° (WSW) 02:48:31 145.827
Oscar 19 29 Apr 02:37:46 02:43:00 76° 102° (ESE) 02:48:11 437.125/150
AIST 1 29 Apr 02:56:21 02:57:40 11° 291° (WNW) 02:58:59
BEESAT 29 Apr 03:07:18 03:11:51 46° 260° (W) 03:16:27 436.000
KKS-1 29 Apr 03:10:44 03:14:17 24° 68° (ENE) 03:17:51 437.445
AO-7 29 Apr 03:31:08 03:36:23 18° 92° (E) 03:41:36 29.400- 29.500
JAS-2 29 Apr 03:34:59 03:41:42 35° 295° (WNW) 03:48:34 435.910
BEESAT 3 29 Apr 03:35:05 03:36:09 11° 42° (NE) 03:37:12 437.485
Gurwin Techsat 1B 29 Apr 03:35:48 03:41:07 78° 285° (WNW) 03:46:25 435.225
STARS 29 Apr 03:39:24 03:43:00 25° 68° (ENE) 03:46:36 437.465
Cosmos 2499 29 Apr 03:40:41 03:46:32 27° 289° (WNW) 03:52:21 435.465 / 435.565
ITAMSAT 1 29 Apr 03:46:33 03:51:39 55° 101° (E) 03:56:43 435.822/435.867
CUSAT 1 29 Apr 03:48:37 03:55:24 57° 265° (W) 04:03:10 437.405
DANDE 29 Apr 03:50:39 03:56:53 83° 81° (E) 04:04:44 436.750
ITUPSAT 1 29 Apr 04:01:55 04:04:19 14° 268° (W) 04:06:43 437.325
MOZHAYETS 4 29 Apr 04:17:14 04:21:47 74° 76° (ENE) 04:26:22
Oscar 19 29 Apr 04:19:10 04:21:38 14° 299° (WNW) 04:24:07 437.125/150
RS-15 29 Apr 04:42:22 04:50:54 21° 16° (NNE) 04:59:34 29.354- 29.394
KKS-1 29 Apr 04:46:44 04:50:41 30° 263° (W) 04:54:40 437.445
YUBILEINY 29 Apr 05:01:13 05:04:41 13° 59° (ENE) 05:08:09 435.215
BEESAT 2 29 Apr 05:09:17 05:13:12 54° 56° (NE) 05:17:06 435.950
BEESAT 3 29 Apr 05:10:26 05:14:24 83° 240° (WSW) 05:18:20 437.485
STARS 29 Apr 05:15:23 05:19:13 28° 263° (W) 05:23:05 437.465
AO-7 29 Apr 05:21:40 05:30:02 87° 289° (WNW) 05:38:23 29.400- 29.500
ITAMSAT 1 29 Apr 05:27:15 05:30:39 18° 297° (WNW) 05:34:03 435.822/435.867
DANDE 29 Apr 05:35:32 05:39:22 16° 272° (W) 05:43:40 436.750
Cosmos 2491 29 Apr 05:45:54 05:47:38 11° 73° (ENE) 05:49:23 435.465 / 435.565
CUBESAT XI-V 29 Apr 05:50:23 05:54:58 77° 75° (ENE) 05:59:35 437.345
NOAA 18 29 Apr 06:01:16 06:03:51 13° 91° (E) 06:06:24 137.9125
HORYU 2 29 Apr 06:05:47 06:10:13 78° 285° (WNW) 06:14:37 437.375
AIST 2 29 Apr 06:06:09 06:09:03 18° 47° (NE) 06:11:56 435.215
BRITE-PL 29 Apr 06:14:54 06:18:12 16° 89° (E) 06:21:30 437.365/2234.400
CUTE-I 29 Apr 06:24:13 06:27:36 17° 92° (E) 06:30:58 437.470
LilacSat-2 29 Apr 06:45:11 06:48:05 20° 95° (E) 06:50:58 437.200
BEESAT 2 29 Apr 06:49:08 06:50:34 12° 252° (WSW) 06:52:00 435.950
YUBILEINY 29 Apr 06:54:31 07:03:13 71° 80° (E) 07:11:54 435.215
RS-15 29 Apr 06:55:43 07:07:31 49° 47° (NE) 07:19:20 29.354- 29.394
STRAND 1 29 Apr 07:02:02 07:06:46 40° 70° (ENE) 07:11:30 437.568
Cubesat XI-IV 29 Apr 07:05:56 07:11:00 43° 99° (E) 07:16:01 437.490
AO-7 29 Apr 07:16:13 07:21:40 20° 308° (NW) 07:27:07 29.400- 29.500
NOAA 15 29 Apr 07:19:21 07:24:42 88° 105° (ESE) 07:30:01 137.62
Cosmos 2504 29 Apr 07:19:44 07:25:44 25° 71° (ENE) 07:32:00 435.465 / 435.565
Cosmos 2491 29 Apr 07:33:58 07:42:40 68° 92° (E) 07:51:26 435.465 / 435.565
PRISM 29 Apr 07:34:04 07:36:17 14° 65° (ENE) 07:38:30 437.425
M-CUBED/EXP-1 PRIME 29 Apr 07:37:42 07:41:05 26° 100° (E) 07:44:13 437.505
NOAA 18 29 Apr 07:39:33 07:45:00 72° 287° (WNW) 07:50:25 137.9125
AIST 2 29 Apr 07:43:48 07:47:46 45° 244° (WSW) 07:51:42 435.215
GOMX 1 29 Apr 07:47:07 07:52:31 56° 99° (E) 07:57:43 467.674
BRITE-PL 29 Apr 07:51:26 07:57:07 70° 285° (WNW) 08:02:44 437.365/2234.400
SO-50 29 Apr 07:51:37 07:55:51 30° 113° (ESE) 08:00:07 436.795
AUBIESAT-1 29 Apr 07:59:52 08:03:36 38° 102° (ESE) 08:07:03 437.475
CUTE-I 29 Apr 08:02:47 08:07:59 56° 288° (WNW) 08:13:09 437.470
DOVE 4 29 Apr 08:04:47 08:09:41 40° 97° (E) 08:14:19 437.250
LilacSat-2 29 Apr 08:19:14 08:22:21 24° 290° (WNW) 08:25:26 437.200
HO-68 29 Apr 08:24:30 08:30:22 27° 95° (E) 08:36:11 435.675
SEEDS 29 Apr 08:26:01 08:27:39 12° 91° (E) 08:29:17 437.485
COMPASS 1 29 Apr 08:37:26 08:38:47 11° 91° (E) 08:40:08 437.405
STRAND 1 29 Apr 08:42:07 08:46:03 22° 266° (W) 08:50:00 437.568
Cubesat XI-IV 29 Apr 08:46:38 08:50:46 23° 295° (WNW) 08:54:53 437.490
CANX-2 29 Apr 08:51:11 08:55:09 38° 98° (E) 08:59:05 2200.000
YUBILEINY 29 Apr 08:52:51 08:59:07 23° 279° (W) 09:05:24 435.215
CUBEBUG 2 29 Apr 08:59:25 09:01:20 13° 90° (E) 09:03:13 437.445
NOAA 15 29 Apr 09:01:45 09:03:41 12° 301° (WNW) 09:05:37 137.62
PRISM 29 Apr 09:07:21 09:11:13 43° 261° (W) 09:15:07 437.425
RS-15 29 Apr 09:08:28 09:20:13 55° 249° (WSW) 09:31:55 29.354- 29.394
AAUSAT CUBESAT 2 29 Apr 09:10:43 09:14:02 23° 95° (E) 09:17:20 437.432
ISS 29 Apr 09:11:11 09:14:27 81° 140° (SE) 09:17:43 145.825
Cosmos 2504 29 Apr 09:12:07 09:19:29 60° 268° (W) 09:27:21 435.465 / 435.565
M-CUBED/EXP-1 PRIME 29 Apr 09:12:20 09:15:30 22° 298° (WNW) 09:18:28 437.505
CINEMA 3 29 Apr 09:18:50 09:23:35 74° 102° (ESE) 09:28:03 145.822/145.860
CUTE 1.7 + AOD 2 29 Apr 09:24:36 09:28:50 86° 105° (ESE) 09:33:03 437.475
GOMX 1 29 Apr 09:26:17 09:30:04 19° 296° (WNW) 09:33:46 467.674
SO-50 29 Apr 09:31:48 09:36:16 34° 309° (NW) 09:40:45 436.795
Cosmos 2491 29 Apr 09:33:16 09:40:12 25° 292° (WNW) 09:47:13 435.465 / 435.565
AUBIESAT-1 29 Apr 09:35:21 09:37:42 15° 301° (WNW) 09:39:58 437.475
ZACube-1 29 Apr 09:40:15 09:42:59 17° 93° (E) 09:45:41 437.345
DOVE 4 29 Apr 09:43:01 09:47:03 23° 294° (WNW) 09:50:56 437.250
UNISAT 6 29 Apr 09:55:38 09:59:25 25° 68° (ENE) 10:03:09 437.425
SEEDS 29 Apr 09:59:35 10:03:38 50° 286° (WNW) 10:07:41 437.485
COMPASS 1 29 Apr 10:10:36 10:14:39 52° 286° (WNW) 10:18:41 437.405
HO-68 29 Apr 10:11:26 10:18:21 55° 292° (WNW) 10:25:16 435.675
TIGRISAT 29 Apr 10:14:04 10:18:20 36° 71° (ENE) 10:22:33 435.000
CANX-2 29 Apr 10:27:59 10:30:41 17° 293° (WNW) 10:33:22 2200.000
Oscar 11 29 Apr 10:29:29 10:33:48 76° 103° (ESE) 10:38:05 145.826/435.025
CUBEBUG 2 29 Apr 10:34:03 10:38:18 50° 287° (WNW) 10:42:23 437.445
UWE-3 29 Apr 10:35:12 10:39:29 71° 285° (WNW) 10:43:39 435.000/436.395/437.385
FUNcube-1 29 Apr 10:35:13 10:39:27 71° 102° (ESE) 10:43:34 145.935
NANOSAT C BR1 29 Apr 10:35:39 10:36:58 11° 63° (ENE) 10:38:18 145.865
ANTELSAT 29 Apr 10:36:59 10:41:38 67° 75° (ENE) 10:46:14 437.575/2403.000
GONETS M04 29 Apr 10:44:17 10:48:25 14° 60° (ENE) 10:52:32
AAUSAT CUBESAT 2 29 Apr 10:46:01 10:49:28 26° 290° (WNW) 10:52:55 437.432
ISS 29 Apr 10:49:00 10:51:16 17° 338° (NNW) 10:53:31 145.825
DELFI C3 29 Apr 10:57:23 11:01:22 79° 102° (ESE) 11:05:20 145.870
CINEMA 3 29 Apr 10:58:34 10:59:58 11° 299° (WNW) 11:01:21 145.822/145.860
ZACube-1 29 Apr 11:15:32 11:19:25 36° 288° (WNW) 11:23:14 437.345
HUMSAT D 29 Apr 11:18:07 11:22:09 55° 100° (E) 11:26:08 437.325/437.525
QB50P2 29 Apr 11:21:33 11:25:33 40° 72° (ENE) 11:29:35 145.880/145.840
POLYITAN 1 29 Apr 11:23:37 11:27:39 41° 72° (ENE) 11:31:42 437.675
AIST 1 29 Apr 11:25:20 11:27:28 13° 70° (ENE) 11:29:35
PHONESAT 2.4 29 Apr 11:25:46 11:28:11 20° 150° (SSE) 11:30:36 2401.200-2431.200
DUCHIFAT 1 29 Apr 11:26:59 11:30:57 39° 72° (ENE) 11:34:56 145.980
POPSAT HIP 1 29 Apr 11:27:19 11:31:22 44° 72° (ENE) 11:35:28 437.405
QB50P1 29 Apr 11:30:52 11:35:00 49° 73° (ENE) 11:39:09 145.935-145.965
UNISAT 6 29 Apr 11:31:47 11:35:58 31° 263° (W) 11:40:06 437.425
Cosmos 2499 29 Apr 11:39:10 11:43:27 15° 65° (ENE) 11:47:51 435.465 / 435.565
50 SAT 29 Apr 11:44:19 11:46:14 14° 93° (E) 11:48:09 437.505
UKube-1 29 Apr 11:49:11 11:50:06 11° 91° (E) 11:51:02 .
TIGRISAT 29 Apr 11:51:29 11:55:03 21° 266° (W) 11:58:36 435.000
AISAT 29 Apr 11:53:32 11:56:45 19° 94° (E) 11:59:57 437.250
ESTCUBE 1 29 Apr 11:55:05 11:58:56 27° 96° (E) 12:02:46 437.505/2401.250
JAS-2 29 Apr 12:03:04 12:06:46 17° 57° (ENE) 12:10:45 435.910
NANOSAT C BR1 29 Apr 12:07:55 12:12:08 63° 258° (WSW) 12:16:24 145.865
ANTELSAT 29 Apr 12:17:18 12:18:43 11° 270° (W) 12:20:09 437.575/2403.000
Oscar 19 29 Apr 12:18:06 12:19:52 12° 60° (ENE) 12:21:39 437.125/150
SPROUT 29 Apr 12:25:17 12:27:38 14° 92° (E) 12:29:58 437.525
BUGSAT 1 29 Apr 12:25:34 12:29:47 89° 267° (W) 12:34:03 437.445
GONETS M04 29 Apr 12:38:05 12:46:54 75° 82° (E) 12:55:35
CUBEBUG 1 29 Apr 12:40:51 12:45:15 61° 101° (E) 12:49:38 437.445
HUMSAT D 29 Apr 12:55:56 12:57:16 11° 296° (WNW) 12:58:37 437.325/437.525
VELOX 1 29 Apr 12:57:23 13:01:52 86° 286° (WNW) 13:06:20 145.980
QB50P2 29 Apr 12:58:52 13:01:31 16° 267° (W) 13:04:11 145.880/145.840
POLYITAN 1 29 Apr 13:00:59 13:03:37 16° 267° (W) 13:06:15 437.675
AIST 1 29 Apr 13:01:06 13:05:22 50° 267° (W) 13:09:37
PHONESAT 2.4 29 Apr 13:01:38 13:04:48 83° 163° (SSE) 13:07:58 2401.200-2431.200
DUCHIFAT 1 29 Apr 13:04:09 13:06:48 16° 267° (W) 13:09:28 145.980
POPSAT HIP 1 29 Apr 13:04:56 13:07:22 15° 268° (W) 13:09:48 437.405
DX 1 29 Apr 13:08:16 13:12:40 73° 285° (WNW) 13:17:01 434.975-435.025
QB50P1 29 Apr 13:09:00 13:11:02 13° 268° (W) 13:13:05 145.935-145.965
AO-85 29 Apr 13:12:03 13:16:34 27° 111° (ESE) 13:21:05 145.980
TISAT 1 29 Apr 13:14:16 13:16:37 14° 92° (E) 13:18:57 437.305
50 SAT 29 Apr 13:16:51 13:20:09 33° 288° (WNW) 13:23:27 437.505
Gurwin Techsat 1B 29 Apr 13:17:54 13:21:28 19° 63° (ENE) 13:25:01 435.225
UKube-1 29 Apr 13:22:14 13:26:31 62° 286° (WNW) 13:30:48 .
AISAT 29 Apr 13:29:13 13:33:20 36° 289° (WNW) 13:37:25 437.250
Cosmos 2499 29 Apr 13:29:49 13:37:29 87° 82° (E) 13:45:47 435.465 / 435.565
ESTCUBE 1 29 Apr 13:31:52 13:35:39 27° 291° (WNW) 13:39:27 437.505/2401.250
JAS-2 29 Apr 13:45:13 13:50:54 74° 258° (WSW) 13:57:24 435.910
Oscar 19 29 Apr 13:53:15 13:58:25 86° 257° (WSW) 14:03:38 437.125/150
SPROUT 29 Apr 13:59:42 14:03:49 45° 287° (WNW) 14:07:53 437.525
ISS 29 Apr 14:04:37 14:06:28 14° 19° (NNE) 14:08:17 145.825
CUBEBUG 1 29 Apr 14:19:07 14:21:01 13° 297° (WNW) 14:22:53 437.445
ITUPSAT 1 29 Apr 14:24:28 14:27:23 16° 93° (E) 14:30:19 437.325
AO-7 29 Apr 14:28:57 14:35:17 25° 56° (NE) 14:41:38 29.400- 29.500
SWISSCUBE 29 Apr 14:35:18 14:39:08 24° 95° (E) 14:42:57 437.505
GONETS M04 29 Apr 14:36:39 14:42:41 21° 280° (W) 14:48:43
PHONESAT 2.4 29 Apr 14:38:38 14:41:47 62° 2° (N) 14:44:56 2401.200-2431.200
TISAT 1 29 Apr 14:48:28 14:52:29 43° 288° (WNW) 14:56:28 437.305
O/OREOS (USA 219) 29 Apr 14:49:41 14:51:46 13° 98° (E) 14:53:52 437.305
AO-85 29 Apr 14:51:40 14:56:52 44° 307° (NW) 15:02:03 145.980
Gurwin Techsat 1B 29 Apr 14:55:44 15:00:57 56° 260° (W) 15:06:11 435.225
ITAMSAT 1 29 Apr 15:03:12 15:08:22 75° 74° (ENE) 15:13:33 435.822/435.867
BEESAT 29 Apr 15:08:25 15:13:01 48° 100° (E) 15:17:37 436.000
CUSAT 1 29 Apr 15:13:54 15:14:55 11° 82° (E) 15:15:58 437.405
Cosmos 2499 29 Apr 15:25:25 15:29:38 16° 280° (W) 15:34:02 435.465 / 435.565
PCSat 29 Apr 15:37:21 15:40:23 15° 104° (ESE) 15:43:26 145.827
ISS 29 Apr 15:40:11 15:43:27 64° 37° (NE) 15:46:40 145.825
ITUPSAT 1 29 Apr 16:00:53 16:05:29 49° 288° (WNW) 16:10:04 437.325
SWISSCUBE 29 Apr 16:12:42 16:16:57 33° 291° (WNW) 16:21:11 437.505
MOZHAYETS 4 29 Apr 16:14:25 16:17:38 19° 93° (E) 16:20:50
PHONESAT 2.4 29 Apr 16:15:34 16:18:43 67° 198° (SSW) 16:21:52 2401.200-2431.200
AO-7 29 Apr 16:19:01 16:27:17 74° 255° (WSW) 16:35:36 29.400- 29.500
SO-50 29 Apr 16:24:23 16:28:00 21° 45° (NE) 16:31:32 436.795
O/OREOS (USA 219) 29 Apr 16:26:07 16:30:38 56° 294° (WNW) 16:35:11 437.305
KKS-1 29 Apr 16:38:17 16:42:41 54° 100° (E) 16:47:02 437.445
ITAMSAT 1 29 Apr 16:46:30 16:48:21 12° 270° (W) 16:50:11 435.822/435.867
BEESAT 29 Apr 16:47:19 16:50:25 18° 295° (WNW) 16:53:32 436.000
CUSAT 1 29 Apr 16:53:42 16:56:26 27° 289° (WNW) 16:59:47 437.405
NOAA 15 29 Apr 17:01:15 17:04:16 16° 62° (ENE) 17:07:18 137.62
DANDE 29 Apr 17:02:03 17:04:40 61° 281° (W) 17:07:46 436.750
HORYU 2 29 Apr 17:02:10 17:06:38 82° 77° (ENE) 17:11:09 437.375
STARS 29 Apr 17:05:19 17:09:40 55° 101° (E) 17:13:58 437.465
PCSat 29 Apr 17:17:46 17:23:09 67° 300° (WNW) 17:28:35 145.827
ISS 29 Apr 17:18:12 17:19:31 12° 232° (SW) 17:20:48 145.825
NOAA 18 29 Apr 17:25:28 17:29:52 25° 65° (ENE) 17:34:16 137.9125
BRITE-PL 29 Apr 17:25:37 17:27:50 13° 61° (ENE) 17:30:07 437.365/2234.400
CUTE-I 29 Apr 17:44:34 17:48:53 26° 66° (ENE) 17:53:13 437.470
Cosmos 2491 29 Apr 17:46:29 17:54:08 32° 71° (ENE) 18:01:41 435.465 / 435.565
CUBESAT XI-V 29 Apr 17:48:52 17:52:26 21° 94° (E) 17:56:00 437.345
MOZHAYETS 4 29 Apr 17:50:41 17:54:56 38° 288° (WNW) 17:59:09
PHONESAT 2.4 29 Apr 17:53:16 17:55:14 15° 213° (SSW) 17:57:12 2401.200-2431.200
YUBILEINY 29 Apr 18:02:24 18:06:41 15° 76° (ENE) 18:10:57 435.215
SO-50 29 Apr 18:04:14 18:08:46 48° 244° (WSW) 18:13:07 436.795
KKS-1 29 Apr 18:16:25 18:18:47 14° 296° (WNW) 18:21:07 437.445
AO-7 29 Apr 18:18:27 18:21:17 12° 272° (W) 18:24:08 29.400- 29.500
M-CUBED/EXP-1 PRIME 29 Apr 18:21:51 18:26:04 33° 65° (ENE) 18:30:17 437.505
Cubesat XI-IV 29 Apr 18:26:36 18:31:51 63° 73° (ENE) 18:37:08 437.490
NOAA 15 29 Apr 18:38:14 18:43:27 67° 258° (WSW) 18:48:43 137.62
STARS 29 Apr 18:43:20 18:45:33 14° 296° (WNW) 18:47:44 437.465
AUBIESAT-1 29 Apr 18:43:36 18:48:02 46° 67° (ENE) 18:52:27 437.475
HO-68 29 Apr 18:53:26 18:58:06 19° 57° (ENE) 19:02:44 435.675
GOMX 1 29 Apr 18:53:31 18:58:12 49° 72° (ENE) 19:03:14 467.674
LilacSat-2 29 Apr 18:59:00 19:02:50 60° 260° (W) 19:06:41 437.200
BEESAT 3 29 Apr 19:00:46 19:03:48 21° 112° (ESE) 19:06:50 437.485
BRITE-PL 29 Apr 19:00:57 19:05:34 69° 260° (W) 19:10:36 437.365/2234.400
BEESAT 2 29 Apr 19:02:19 19:04:04 13° 109° (ESE) 19:05:50 435.950
NOAA 18 29 Apr 19:05:01 19:10:15 43° 261° (W) 19:15:29 137.9125
PCSat 29 Apr 19:05:45 19:07:36 12° 320° (NW) 19:09:27 145.827
DOVE 4 29 Apr 19:08:24 19:12:56 35° 70° (ENE) 19:17:40 437.250
STRAND 1 29 Apr 19:15:07 19:17:55 15° 92° (E) 19:20:41 437.568
CUTE-I 29 Apr 19:23:47 19:28:43 38° 262° (W) 19:33:40 437.470
CUBESAT XI-V 29 Apr 19:25:37 19:29:53 36° 289° (WNW) 19:34:10 437.345
Cosmos 2491 29 Apr 19:42:49 19:51:19 55° 270° (W) 19:59:44 435.465 / 435.565
CANX-2 29 Apr 19:43:06 19:46:30 24° 69° (ENE) 19:49:54 2200.000
YUBILEINY 29 Apr 19:53:17 20:02:02 84° 96° (E) 20:10:48 435.215
M-CUBED/EXP-1 PRIME 29 Apr 19:56:39 20:00:33 26° 260° (W) 20:04:30 437.505
CUBEBUG 2 29 Apr 19:56:55 19:58:35 12° 63° (ENE) 20:00:15 437.445
Cosmos 2504 29 Apr 19:58:57 20:03:48 19° 82° (E) 20:08:33 435.465 / 435.565
AAUSAT CUBESAT 2 29 Apr 20:01:03 20:03:10 14° 66° (ENE) 20:05:16 437.432
Cubesat XI-IV 29 Apr 20:09:19 20:12:19 15° 268° (W) 20:15:21 437.490
CUTE 1.7 + AOD 2 29 Apr 20:15:48 20:19:52 49° 74° (ENE) 20:23:58 437.475
CINEMA 3 29 Apr 20:18:11 20:23:04 59° 74° (ENE) 20:28:01 145.822/145.860
AUBIESAT-1 29 Apr 20:19:27 20:22:38 18° 262° (W) 20:25:51 437.475
GOMX 1 29 Apr 20:33:21 20:36:37 18° 270° (W) 20:40:02 467.674
ZACube-1 29 Apr 20:35:31 20:37:48 14° 65° (ENE) 20:40:03 437.345
BEESAT 2 29 Apr 20:37:36 20:41:28 50° 304° (NW) 20:45:23 435.950
HO-68 29 Apr 20:37:45 20:44:56 83° 255° (WSW) 20:52:09 435.675
BEESAT 3 29 Apr 20:37:50 20:41:20 30° 308° (NW) 20:44:51 437.485
DOVE 4 29 Apr 20:46:31 20:50:39 26° 267° (W) 20:54:57 437.250
SEEDS 29 Apr 20:49:34 20:53:44 90° 257° (WSW) 20:57:56 437.485
PRISM 29 Apr 20:50:17 20:53:48 26° 96° (E) 20:57:18 437.425
STRAND 1 29 Apr 20:52:25 20:57:27 60° 287° (WNW) 21:02:28 437.568
COMPASS 1 29 Apr 20:59:39 21:03:47 85° 79° (E) 21:07:56 437.405
JUGNU 29 Apr 21:00:46 21:02:28 11° 176° (S) 21:04:09 437.505
CANX-2 29 Apr 21:18:42 21:22:15 26° 264° (W) 21:25:48 2200.000
RS-15 29 Apr 21:19:40 21:28:46 30° 103° (ESE) 21:38:10 29.354- 29.394
Oscar 11 29 Apr 21:22:45 21:26:54 48° 73° (ENE) 21:31:04 145.826/435.025
FUNcube-1 29 Apr 21:28:56 21:33:17 47° 73° (ENE) 21:37:36 145.935
CUBEBUG 2 29 Apr 21:29:48 21:34:34 75° 259° (W) 21:39:19 437.445
UWE-3 29 Apr 21:30:02 21:34:42 78° 76° (ENE) 21:39:20 435.000/436.395/437.385
AAUSAT CUBESAT 2 29 Apr 21:34:18 21:38:15 45° 261° (W) 21:42:14 437.432
AIST 2 29 Apr 21:39:47 21:43:45 48° 117° (ESE) 21:47:45 435.215
DELFI C3 29 Apr 21:42:14 21:45:51 36° 72° (ENE) 21:49:29 145.870
AO-85 29 Apr 21:45:41 21:48:54 17° 42° (NE) 21:51:56 145.980
Cosmos 2504 29 Apr 21:49:06 21:56:25 66° 280° (W) 22:03:34 435.465 / 435.565
YUBILEINY 29 Apr 21:54:01 21:59:55 20° 295° (WNW) 22:05:51 435.215
CUTE 1.7 + AOD 2 29 Apr 21:54:11 21:55:59 12° 269° (W) 21:57:48 437.475
CINEMA 3 29 Apr 21:57:43 22:00:32 15° 270° (W) 22:03:22 145.822/145.860
HUMSAT D 29 Apr 22:08:07 22:11:55 33° 71° (ENE) 22:15:42 437.325/437.525
ZACube-1 29 Apr 22:09:05 22:13:35 58° 260° (W) 22:18:03 437.345
PRISM 29 Apr 22:25:39 22:29:00 24° 291° (WNW) 22:32:21 437.425
HO-68 29 Apr 22:30:38 22:33:34 13° 271° (W) 22:36:31 435.675
ANTELSAT 29 Apr 22:31:46 22:34:06 14° 92° (E) 22:36:24 437.575/2403.000
JUGNU 29 Apr 22:49:40 22:50:33 10° 187° (S) 22:51:26 437.505
AISAT 29 Apr 22:50:29 22:53:06 16° 65° (ENE) 22:55:45 437.250
ESTCUBE 1 29 Apr 22:53:50 22:57:14 22° 67° (ENE) 23:00:40 437.505/2401.250
Oscar 11 29 Apr 23:01:10 23:03:17 13° 268° (W) 23:05:25 145.826/435.025
FUNcube-1 29 Apr 23:07:06 23:09:45 15° 268° (W) 23:12:22 145.935
DELFI C3 29 Apr 23:18:36 23:20:51 15° 267° (W) 23:23:08 145.870
AIST 2 29 Apr 23:19:42 23:22:30 17° 314° (NW) 23:25:18 435.215
SPROUT 29 Apr 23:19:50 23:20:26 10° 63° (ENE) 23:21:02 437.525
UNISAT 6 29 Apr 23:24:24 23:28:42 58° 101° (E) 23:32:55 437.425
